CZ-6A DEB, 54530

Orbit data source: Space-Track

CZ-6A DEB, 54530 is space debris in SSO originally from a launch on Fri, 11 Nov 2022 UTC launched from the Taiyaun Space Center, China (TSC). Debris objects in space refer to the collection of defunct objects orbiting the Earth. Examples of debris include non-operational satellites, rocket bodies, and fragments generated from explosions, collisions, or faulty payload assembly.

Loading next visibility...
Identifier
54530, 2022-151KJ
Orbit
SSO
Country
Flag of CNCN / PRC
Related business
Manufacturer
SAST
Mission
Spacecraft
Bus & Motor
Unknown
Mass
Unknown
Launch date (UTC)
2022-11-11 (4 years ago)
Launch vehicle
Unknown
Launch site
Taiyaun Space Center, China (TSC)
Object type
Payload
Rocket body
Debris
Shape & HBR
Unknown shape, 0.2 m
Radar Cross Section
Medium (>0.1 m² and <1 m²)

Expand to show TLE details & history
Last TLE update: 2 days ago

TLE from 2 days ago
0 CZ-6A DEB
1 54530U 22151KJ  26171.24842877  .00000085  00000-0  69829-4 0  9998
2 54530  98.8249 175.5410 0031415 305.9993  53.8268 14.12345574185488
Epoch: 2026-06-20T05:57Z
TLE epoch observation values (Epoch: 2026-06-20T05:57:44.245Z)
Latitude
0.00002°
Longitude
177.64087°
Altitude
840.896 km
Speed
7.439 km/s
True Right ascension
11h 42m 09s
True Declination
0° 00' 00"
Sunlit
Object was in daylight at epoch
Visualization orbit readout
Latitude
Unknown
Longitude
Unknown
Altitude
Unknown
Speed
Unknown
Apparent Right ascension
Unknown
Apparent Declination
Unknown
Sunlit
N/A
Visualization observer readout
Local Sidereal Time
21:24:28
Azimuth
Unknown
Elevation
Unknown
Doppler factor
Unknown
Orbital elements
Apogee altitude
871.233 km
Perigee altitude
825.828 km
Semi-major axis
7,226.668 km
Eccentricity
0.00314
Inclination
98.8249°
RAAN
175.541°
Arg. of periapsis
305.9993°
True anomaly
54.11807°
Mean anomaly
53.8268°
Eccentric anomaly
53.97237°
Mean motion
3.53294 °/min
Orbital period
101.9 mins
BSTAR
0.000069829
Loading maneuver chart data...
Computing Atmospheric mass density...
Loading historical data...
Loading historical data...
Loading historical data...
Loading historical data...
Loading historical data...
Loading historical data...
Loading historical data...

Documentation

Showing up to 5 results
|